Time,TemperatureF,DewpointF,PressureIn,WindDirection,WindDirectionDegrees,WindSpeedMPH,WindSpeedGustMPH,Humidity,HourlyPrecipIn,Conditions,Clouds,dailyrainin,SoftwareType,DateUTC
2013-02-15 00:01:00,32.5,30.0,29.96,SE,145,0.0,-999.0,91,-99.99,,,0.00,weatherlink.com 1.10,2013-02-15 05:01:00,
2013-02-15 00:16:00,32.5,31.0,29.95,SE,145,0.0,-999.0,92,-99.99,,,0.00,weatherlink.com 1.10,2013-02-15 05:16:00,
2013-02-15 00:31:00,32.1,30.0,29.96,SE,145,0.0,-999.0,92,-99.99,,,0.00,weatherlink.com 1.10,2013-02-15 05:31:00,
2013-02-15 00:46:00,31.8,30.0,29.97,SE,145,0.0,-999.0,92,-99.99,,,0.00,weatherlink.com 1.10,2013-02-15 05:46:00,
2013-02-15 01:01:00,31.5,30.0,29.97,SE,145,0.0,-999.0,92,-99.99,,,0.00,weatherlink.com 1.10,2013-02-15 06:01:00,
2013-02-15 01:16:00,31.3,30.0,29.97,SE,145,0.0,-999.0,93,-99.99,,,0.00,weatherlink.com 1.10,2013-02-15 06:16:00,
2013-02-15 01:31:00,31.0,29.0,29.96,SE,145,0.0,-999.0,93,-99.99,,,0.00,weatherlink.com 1.10,2013-02-15 06:31:00,
2013-02-15 01:46:00,30.7,29.0,29.96,SE,145,0.0,-999.0,93,-99.99,,,0.00,weatherlink.com 1.10,2013-02-15 06:46:00,
2013-02-15 02:01:00,30.4,29.0,29.96,SE,145,0.0,-999.0,93,-99.99,,,0.00,weatherlink.com 1.10,2013-02-15 07:01:00,
2013-02-15 02:16:00,30.3,29.0,29.95,SE,145,0.0,-999.0,93,-99.99,,,0.00,weatherlink.com 1.10,2013-02-15 07:16:00,
2013-02-15 02:31:00,30.0,28.0,29.95,SE,145,0.0,-999.0,93,-99.99,,,0.00,weatherlink.com 1.10,2013-02-15 07:31:00,
2013-02-15 02:46:00,29.8,28.0,29.95,SE,145,0.0,-999.0,93,-99.99,,,0.00,weatherlink.com 1.10,2013-02-15 07:46:00,
2013-02-15 03:02:00,29.7,28.0,29.95,SE,145,0.0,-999.0,94,-99.99,,,0.00,weatherlink.com 1.10,2013-02-15 08:02:00,
2013-02-15 03:17:00,29.4,28.0,29.94,SE,145,0.0,-999.0,94,-99.99,,,0.00,weatherlink.com 1.10,2013-02-15 08:17:00,
2013-02-15 03:32:00,29.1,28.0,29.94,SE,145,0.0,-999.0,94,-99.99,,,0.00,weatherlink.com 1.10,2013-02-15 08:32:00,
2013-02-15 03:47:00,29.3,28.0,29.94,SE,145,0.0,-999.0,94,-99.99,,,0.00,weatherlink.com 1.10,2013-02-15 08:47:00,
2013-02-15 04:01:00,29.1,28.0,29.94,SE,145,0.0,-999.0,94,-99.99,,,0.00,weatherlink.com 1.10,2013-02-15 09:01:00,
2013-02-15 04:16:00,29.0,28.0,29.94,SE,145,0.0,-999.0,94,-99.99,,,0.00,weatherlink.com 1.10,2013-02-15 09:16:00,
2013-02-15 04:31:00,29.1,28.0,29.95,SE,145,0.0,-999.0,94,-99.99,,,0.00,weatherlink.com 1.10,2013-02-15 09:31:00,
2013-02-15 04:46:00,29.1,28.0,29.95,SE,145,0.0,-999.0,94,-99.99,,,0.00,weatherlink.com 1.10,2013-02-15 09:46:00,
2013-02-15 05:01:00,29.0,28.0,29.95,SE,145,0.0,-999.0,94,-99.99,,,0.00,weatherlink.com 1.10,2013-02-15 10:01:00,
2013-02-15 05:17:00,29.0,28.0,29.95,SE,145,0.0,-999.0,95,-99.99,,,0.00,weatherlink.com 1.10,2013-02-15 10:17:00,
2013-02-15 05:31:00,28.8,28.0,29.95,SE,145,0.0,-999.0,95,-99.99,,,0.00,weatherlink.com 1.10,2013-02-15 10:31:00,
2013-02-15 05:46:00,28.7,28.0,29.95,SE,145,0.0,-999.0,95,-99.99,,,0.00,weatherlink.com 1.10,2013-02-15 10:46:00,
2013-02-15 06:02:00,28.5,27.0,29.95,SE,145,0.0,-999.0,95,-99.99,,,0.00,weatherlink.com 1.10,2013-02-15 11:02:00,
2013-02-15 06:17:00,28.2,27.0,29.96,SE,145,0.0,-999.0,94,-99.99,,,0.00,weatherlink.com 1.10,2013-02-15 11:17:00,
2013-02-15 06:32:00,28.5,27.0,29.96,SE,145,0.0,-999.0,95,-99.99,,,0.00,weatherlink.com 1.10,2013-02-15 11:32:00,
2013-02-15 06:46:00,28.5,27.0,29.96,SE,145,0.0,-999.0,95,-99.99,,,0.00,weatherlink.com 1.10,2013-02-15 11:46:00,
2013-02-15 07:02:00,28.2,27.0,29.97,SE,145,0.0,-999.0,95,-99.99,,,0.00,weatherlink.com 1.10,2013-02-15 12:02:00,
2013-02-15 07:17:00,28.1,27.0,29.97,SE,145,0.0,-999.0,95,-99.99,,,0.00,weatherlink.com 1.10,2013-02-15 12:17:00,
2013-02-15 07:32:00,28.5,27.0,29.98,SE,145,0.0,-999.0,95,-99.99,,,0.00,weatherlink.com 1.10,2013-02-15 12:32:00,
2013-02-15 07:47:00,31.0,30.0,29.97,SE,145,0.0,-999.0,96,-99.99,,,0.00,weatherlink.com 1.10,2013-02-15 12:47:00,
2013-02-15 08:02:00,33.1,32.0,29.97,SE,145,0.0,-999.0,96,-99.99,,,0.00,weatherlink.com 1.10,2013-02-15 13:02:00,
2013-02-15 08:17:00,35.8,35.0,29.98,SE,145,0.0,-999.0,96,-99.99,,,0.00,weatherlink.com 1.10,2013-02-15 13:17:00,
2013-02-15 08:32:00,37.9,36.0,29.99,SE,145,0.0,-999.0,93,-99.99,,,0.00,weatherlink.com 1.10,2013-02-15 13:32:00,
2013-02-15 08:47:00,40.1,37.0,29.98,SE,145,0.0,-999.0,88,-99.99,,,0.00,weatherlink.com 1.10,2013-02-15 13:47:00,
2013-02-15 09:02:00,41.9,38.0,29.98,SE,145,0.0,-999.0,86,-99.99,,,0.00,weatherlink.com 1.10,2013-02-15 14:02:00,
2013-02-15 09:17:00,42.8,39.0,29.98,SSE,152,0.0,-999.0,86,-99.99,,,0.00,weatherlink.com 1.10,2013-02-15 14:17:00,
2013-02-15 09:32:00,45.1,41.0,29.98,SSE,152,0.0,-999.0,85,-99.99,,,0.00,weatherlink.com 1.10,2013-02-15 14:32:00,
2013-02-15 09:47:00,47.7,41.0,29.98,SSE,152,0.0,-999.0,77,-99.99,,,0.00,weatherlink.com 1.10,2013-02-15 14:47:00,
2013-02-15 10:02:00,48.2,41.0,29.98,SSE,152,0.0,-999.0,75,-99.99,,,0.00,weatherlink.com 1.10,2013-02-15 15:02:00,
2013-02-15 10:17:00,49.6,40.0,29.98,SSE,152,0.0,-999.0,70,-99.99,,,0.00,weatherlink.com 1.10,2013-02-15 15:17:00,
2013-02-15 10:32:00,51.0,40.0,29.97,SSE,152,0.0,-999.0,66,-99.99,,,0.00,weatherlink.com 1.10,2013-02-15 15:32:00,
2013-02-15 10:47:00,52.2,41.0,29.97,SSE,152,0.0,-999.0,65,-99.99,,,0.00,weatherlink.com 1.10,2013-02-15 15:47:00,
2013-02-15 11:02:00,53.8,39.0,29.97,SSE,151,0.0,-999.0,58,-99.99,,,0.00,weatherlink.com 1.10,2013-02-15 16:02:00,
2013-02-15 11:17:00,55.9,38.0,29.96,SSE,151,0.0,-999.0,51,-99.99,,,0.00,weatherlink.com 1.10,2013-02-15 16:17:00,
2013-02-15 11:32:00,55.9,36.0,29.96,SSE,155,0.0,-999.0,48,-99.99,,,0.00,weatherlink.com 1.10,2013-02-15 16:32:00,
2013-02-15 11:48:00,57.5,37.0,29.95,SSE,168,0.0,-999.0,46,-99.99,,,0.00,weatherlink.com 1.10,2013-02-15 16:48:00,
2013-02-15 12:02:00,58.1,37.0,29.94,SSE,157,0.0,-999.0,46,-99.99,,,0.00,weatherlink.com 1.10,2013-02-15 17:02:00,
2013-02-15 12:17:00,57.8,35.0,29.93,SSE,157,0.0,-999.0,42,-99.99,,,0.00,weatherlink.com 1.10,2013-02-15 17:17:00,
2013-02-15 12:32:00,58.4,35.0,29.92,SSW,203,0.0,-999.0,41,-99.99,,,0.00,weatherlink.com 1.10,2013-02-15 17:32:00,
2013-02-15 12:48:00,58.6,34.0,29.92,WNW,287,0.0,-999.0,39,-99.99,,,0.00,weatherlink.com 1.10,2013-02-15 17:48:00,
2013-02-15 13:02:00,59.8,30.0,29.91,NE,56,0.0,-999.0,33,-99.99,,,0.00,weatherlink.com 1.10,2013-02-15 18:02:00,
2013-02-15 13:18:00,60.9,33.0,29.90,East,88,0.0,-999.0,35,-99.99,,,0.00,weatherlink.com 1.10,2013-02-15 18:18:00,
2013-02-15 13:33:00,61.0,32.0,29.90,East,88,0.0,-999.0,33,-99.99,,,0.00,weatherlink.com 1.10,2013-02-15 18:33:00,
2013-02-15 13:48:00,61.5,30.0,29.89,ESE,106,0.0,-999.0,30,-99.99,,,0.00,weatherlink.com 1.10,2013-02-15 18:48:00,
2013-02-15 14:03:00,61.8,28.0,29.89,South,179,5.0,-999.0,28,-99.99,,,0.00,weatherlink.com 1.10,2013-02-15 19:03:00,
2013-02-15 14:18:00,61.2,28.0,29.87,East,100,0.0,-999.0,28,-99.99,,,0.00,weatherlink.com 1.10,2013-02-15 19:18:00,
2013-02-15 14:48:00,62.4,30.0,29.86,SE,145,3.0,-999.0,30,-99.99,,,0.00,weatherlink.com 1.10,2013-02-15 19:48:00,
2013-02-15 15:03:00,61.8,31.0,29.86,SSE,154,0.0,-999.0,31,-99.99,,,0.00,weatherlink.com 1.10,2013-02-15 20:03:00,
2013-02-15 15:18:00,62.1,28.0,29.85,NNE,24,0.0,-999.0,27,-99.99,,,0.00,weatherlink.com 1.10,2013-02-15 20:18:00,
2013-02-15 15:33:00,62.4,30.0,29.84,SSE,148,0.0,-999.0,29,-99.99,,,0.00,weatherlink.com 1.10,2013-02-15 20:33:00,
2013-02-15 15:48:00,63.2,29.0,29.84,SSE,162,0.0,-999.0,28,-99.99,,,0.00,weatherlink.com 1.10,2013-02-15 20:48:00,
2013-02-15 16:03:00,62.6,28.0,29.83,SSE,160,0.0,-999.0,27,-99.99,,,0.00,weatherlink.com 1.10,2013-02-15 21:03:00,
2013-02-15 16:33:00,62.3,29.0,29.83,ESE,121,0.0,-999.0,29,-99.99,,,0.00,weatherlink.com 1.10,2013-02-15 21:33:00,
2013-02-15 16:48:00,63.1,31.0,29.83,East,100,0.0,-999.0,30,-99.99,,,0.00,weatherlink.com 1.10,2013-02-15 21:48:00,
2013-02-15 17:03:00,62.0,29.0,29.83,South,171,0.0,-999.0,29,-99.99,,,0.00,weatherlink.com 1.10,2013-02-15 22:03:00,
2013-02-15 17:18:00,62.3,29.0,29.83,SSE,168,0.0,-999.0,29,-99.99,,,0.00,weatherlink.com 1.10,2013-02-15 22:18:00,
2013-02-15 17:34:00,62.0,31.0,29.82,SSE,157,0.0,-999.0,31,-99.99,,,0.00,weatherlink.com 1.10,2013-02-15 22:34:00,
2013-02-15 17:48:00,59.6,32.0,29.82,SSE,157,0.0,-999.0,35,-99.99,,,0.00,weatherlink.com 1.10,2013-02-15 22:48:00,
2013-02-15 18:03:00,57.5,33.0,29.82,SSE,157,0.0,-999.0,39,-99.99,,,0.00,weatherlink.com 1.10,2013-02-15 23:03:00,
2013-02-15 18:18:00,55.9,33.0,29.82,SSE,157,0.0,-999.0,42,-99.99,,,0.00,weatherlink.com 1.10,2013-02-15 23:18:00,
2013-02-15 18:33:00,53.8,34.0,29.82,SSE,157,0.0,-999.0,47,-99.99,,,0.00,weatherlink.com 1.10,2013-02-15 23:33:00,
2013-02-15 18:49:00,51.7,34.0,29.82,SSE,157,0.0,-999.0,51,-99.99,,,0.00,weatherlink.com 1.10,2013-02-15 23:49:00,
2013-02-15 19:03:00,49.8,34.0,29.83,SSE,157,0.0,-999.0,55,-99.99,,,0.00,weatherlink.com 1.10,2013-02-16 00:03:00,
2013-02-15 19:19:00,48.2,34.0,29.83,SSE,157,0.0,-999.0,58,-99.99,,,0.00,weatherlink.com 1.10,2013-02-16 00:19:00,
2013-02-15 19:33:00,46.7,33.0,29.83,SSE,157,0.0,-999.0,60,-99.99,,,0.00,weatherlink.com 1.10,2013-02-16 00:33:00,
2013-02-15 19:48:00,45.7,34.0,29.84,SSE,157,0.0,-999.0,64,-99.99,,,0.00,weatherlink.com 1.10,2013-02-16 00:48:00,
2013-02-15 20:03:00,44.6,35.0,29.84,SSE,157,0.0,-999.0,68,-99.99,,,0.00,weatherlink.com 1.10,2013-02-16 01:03:00,
2013-02-15 20:18:00,43.6,35.0,29.84,SSE,157,0.0,-999.0,71,-99.99,,,0.00,weatherlink.com 1.10,2013-02-16 01:18:00,
2013-02-15 20:34:00,42.8,35.0,29.84,SSE,157,0.0,-999.0,73,-99.99,,,0.00,weatherlink.com 1.10,2013-02-16 01:34:00,
2013-02-15 20:48:00,42.1,34.0,29.84,SSE,157,0.0,-999.0,74,-99.99,,,0.00,weatherlink.com 1.10,2013-02-16 01:48:00,
2013-02-15 21:03:00,41.5,35.0,29.84,SSE,157,0.0,-999.0,77,-99.99,,,0.00,weatherlink.com 1.10,2013-02-16 02:03:00,
2013-02-15 21:19:00,40.9,35.0,29.84,SSE,157,0.0,-999.0,78,-99.99,,,0.00,weatherlink.com 1.10,2013-02-16 02:19:00,
2013-02-15 21:33:00,40.3,34.0,29.84,SSE,157,0.0,-999.0,79,-99.99,,,0.00,weatherlink.com 1.10,2013-02-16 02:33:00,
2013-02-15 21:48:00,39.8,34.0,29.84,SSE,157,0.0,-999.0,81,-99.99,,,0.00,weatherlink.com 1.10,2013-02-16 02:48:00,
2013-02-15 22:03:00,39.2,34.0,29.84,SSE,157,0.0,-999.0,81,-99.99,,,0.00,weatherlink.com 1.10,2013-02-16 03:03:00,
2013-02-15 22:18:00,38.8,34.0,29.84,SSE,157,0.0,-999.0,82,-99.99,,,0.00,weatherlink.com 1.10,2013-02-16 03:18:00,
2013-02-15 22:34:00,38.3,34.0,29.84,SSE,157,0.0,-999.0,83,-99.99,,,0.00,weatherlink.com 1.10,2013-02-16 03:34:00,
2013-02-15 22:48:00,37.9,34.0,29.84,SSE,157,0.0,-999.0,85,-99.99,,,0.00,weatherlink.com 1.10,2013-02-16 03:48:00,
2013-02-15 23:03:00,37.9,35.0,29.85,ESE,113,0.0,-999.0,88,-99.99,,,0.00,weatherlink.com 1.10,2013-02-16 04:03:00,
2013-02-15 23:18:00,38.9,35.0,29.85,SSE,160,0.0,-999.0,86,-99.99,,,0.00,weatherlink.com 1.10,2013-02-16 04:18:00,
2013-02-15 23:33:00,41.8,35.0,29.85,North,10,0.0,-999.0,78,-99.99,,,0.00,weatherlink.com 1.10,2013-02-16 04:33:00,
2013-02-15 23:48:00,42.6,36.0,29.86,North,10,0.0,-999.0,76,-99.99,,,0.00,weatherlink.com 1.10,2013-02-16 04:48:00,